Weather History for Dickinson, ND

Change the Weather History Date:

Friday, January 18, 2013

  Actual Average Record
Temperature  
Mean Temperature 34 °F 16 °F  
Max Temperature 39 °F 26 °F 55 °F (1908)
Min Temperature 29 °F 6 °F -41 °F (1943)
Degree Days  
Heating Degree Days 31 49  
Month to date heating degree days 799 882  
Since 1 July heating degree days 4190 4419  
Cooling Degree Days 0 0  
Month to date cooling degree days 0 0  
Year to date cooling degree days 0 0  
Moisture  
Dew Point 26 °F    
Average Humidity 67    
Maximum Humidity 75    
Minimum Humidity 59    
Precipitation  
Precipitation 0.00 in 0.01 in 0.12 in (2006)
Month to date precipitation 0.01 0.19  
Year to date precipitation 0.01 0.19  
Sea Level Pressure  
Sea Level Pressure 29.81 in    
Wind  
Wind Speed 14 mph (West)    
Max Wind Speed 23 mph    
Max Gust Speed 26 mph    
Visibility 10 miles    
Events      
T = Trace of Precipitation, MM = Missing Value Source: NWS Daily Summary

Daily Weather History Graph

Daily Weather History Graph

Search for Another Location

Airport:

Trip Planner

Search our weather history database for the weather conditions in past years. The results will help you decide how hot, cold, wet, or windy it might be!

Date:

Astronomy

Jan. 18, 2013 Rise Set
Actual Time 7:29 AM MST 4:34 PM MST
Civil Twilight 6:55 AM MST 5:08 PM MST
Nautical Twilight 6:18 AM MST 5:45 PM MST
Astronomical Twilight 5:42 AM MST 6:21 PM MST
Moon 10:37 AM MST (1/18) No Moon Set
Length of Visible Light 10h 12m
Length of Day
9h 04m
Waxing Crescent, 48% of the Moon is Illuminated
Jan 18
Waxing Crescent
Jan 18
First Quarter
Jan 26
Full
Feb 3
Last Quarter
Feb 10
New

Hourly Weather History & Observations

Time (MST) Temp. Windchill Dew Point Humidity Pressure Visibility Wind Dir Wind Speed Gust Speed Precip Events Conditions
12:56 AM 33.1 °F 24.9 °F 24.1 °F 70% 29.87 in 10.0 mi West 10.4 mph - N/A   Clear
1:56 AM 33.1 °F 23.9 °F 23.0 °F 66% 29.86 in 10.0 mi West 12.7 mph - N/A   Clear
2:56 AM 35.1 °F 23.8 °F 24.1 °F 64% 29.84 in 10.0 mi West 20.7 mph - N/A   Clear
3:56 AM 34.0 °F 24.6 °F 24.1 °F 67% 29.84 in 10.0 mi West 13.8 mph - N/A   Clear
4:56 AM 33.1 °F 22.6 °F 24.1 °F 70% 29.83 in 10.0 mi West 16.1 mph - N/A   Clear
5:56 AM 30.0 °F 20.0 °F 23.0 °F 75% 29.83 in 10.0 mi West 12.7 mph - N/A   Clear
6:56 AM 30.0 °F 19.1 °F 23.0 °F 75% 29.83 in 10.0 mi West 15.0 mph - N/A   Clear
7:56 AM 30.0 °F 18.7 °F 21.9 °F 72% 29.85 in 10.0 mi West 16.1 mph - N/A   Clear
8:56 AM 34.0 °F 24.2 °F 24.1 °F 67% 29.86 in 10.0 mi West 15.0 mph - N/A   Clear
9:56 AM 36.0 °F 26.3 °F 26.1 °F 67% 29.86 in 10.0 mi West 16.1 mph - N/A   Clear
10:56 AM 37.9 °F 29.2 °F 27.0 °F 65% 29.84 in 10.0 mi West 15.0 mph - N/A   Clear
11:56 AM 39.0 °F 31.8 °F 27.0 °F 62% 29.82 in 10.0 mi West 11.5 mph - N/A   Clear
12:56 PM 37.9 °F 29.2 °F 28.0 °F 68% 29.78 in 10.0 mi WSW 15.0 mph - N/A   Clear
1:56 PM 37.0 °F 29.3 °F 28.0 °F 70% 29.78 in 10.0 mi WSW 11.5 mph - N/A   Clear
2:56 PM 39.0 °F 29.9 °F 27.0 °F 62% 29.76 in 10.0 mi West 17.3 mph - N/A   Clear
3:56 PM 37.9 °F 30.5 °F 28.0 °F 68% 29.77 in 10.0 mi West 11.5 mph - N/A   Clear
4:56 PM 37.0 °F 30.4 °F 28.0 °F 70% 29.78 in 10.0 mi West 9.2 mph - N/A   Clear
5:56 PM 37.0 °F 30.4 °F 28.0 °F 70% 29.78 in 10.0 mi West 9.2 mph - N/A   Partly Cloudy
6:56 PM 36.0 °F 27.5 °F 28.0 °F 73% 29.79 in 10.0 mi West 12.7 mph - N/A   Clear
7:56 PM 36.0 °F 27.1 °F 28.0 °F 73% 29.80 in 10.0 mi West 13.8 mph - N/A   Partly Cloudy
8:56 PM 36.0 °F 26.7 °F 28.0 °F 73% 29.79 in 10.0 mi West 15.0 mph - N/A   Clear
9:56 PM 36.0 °F 26.0 °F 28.0 °F 73% 29.79 in 10.0 mi West 17.3 mph - N/A   Scattered Clouds
10:56 PM 36.0 °F 26.3 °F 28.0 °F 73% 29.79 in 10.0 mi West 16.1 mph - N/A   Mostly Cloudy
11:56 PM 35.1 °F 25.2 °F 28.0 °F 76% 29.80 in 10.0 mi West 16.1 mph - N/A   Overcast